[[{"header":{"parameterUnit":"m.s-1","parameterCategory":1,"la1":30.2991,"la2":30.254,"lo1":-89.0895,"lo2":-89.0444,"dy":0.0017,"dx":0.0017,"nx":28,"ny":28,"refTime":"2023-08-14T21:00:00:Z","depth":0,"parameterNumber":2,"parameterNumberName":"U-component_of_WINDS"},"data":[0,0,0,0,0,0,0,0,0,0,0,0,0,0,0,0,0,0,0,0,0,0,0,0,0,0,0,0,0,0,0,0,0,0,0,0,0,0,0,0,0,0,0,0,0,0,0,0,0,0,0,0,0,0,0,0,0,0,-1.2556,-1.2556,0,-1.259,-1.259,-1.2591,-1.252,-1.2517,-1.2515,-1.2513,-1.2548,-1.2551,-1.2554,0,0,0,0,0,0,0,0,0,0,0,0,0,-1.2428,-1.2431,-1.2556,-1.2556,-1.2557,-1.259,-1.259,-1.2591,-1.252,-1.2517,-1.2514,-1.2512,-1.2547,-1.255,-1.2554,0,0,0,0,0,0,0,0,0,0,0,0,0,-1.2475,-1.2432,-1.2556,-1.2525,-1.2523,-1.259,-1.259,-1.2591,-1.2521,-1.2517,-1.2514,-1.251,-1.2546,-1.255,-1.2555,-1.2653,0,0,-1.2569,-1.2571,0,0,0,0,0,0,0,0,-1.2472,-1.248,-1.2529,-1.2528,-1.2525,-1.2547,-1.2558,-1.2612,-1.2522,-1.2522,-1.2513,-1.2509,-1.255,-1.2554,-1.2568,-1.2654,-1.2656,-1.2569,-1.2572,-1.2574,-1.2575,0,0,0,0,0,0,0,-1.2469,-1.2478,-1.2569,-1.253,-1.2528,-1.251,-1.2512,-1.2568,-1.2555,-1.2521,-1.2516,-1.2521,-1.2548,-1.2564,-1.2569,-1.2656,-1.2569,-1.2573,-1.2576,-1.2578,-1.2823,-1.2827,0,0,0,0,0,0,-1.247,-1.2476,-1.2568,-1.257,-1.249,-1.2515,-1.2518,-1.2544,-1.2554,-1.2552,-1.2524,-1.2518,-1.2558,-1.2563,-1.257,-1.2685,-1.2574,-1.2578,-1.2581,-1.282,-1.2824,-1.2828,0,0,0,0,0,0,-1.2467,-1.2479,-1.2567,-1.2522,-1.2531,-1.2521,-1.255,-1.2546,-1.2562,-1.2556,-1.2554,-1.2543,-1.2555,-1.2563,-1.2632,-1.2685,-1.258,-1.2585,-1.2815,-1.2821,-1.2826,-1.2917,0,0,0,0,0,0,-1.2464,-1.2478,-1.2516,-1.2523,-1.2534,-1.263,-1.2553,-1.2549,-1.257,-1.2562,-1.2573,-1.2572,-1.2553,-1.2626,-1.2637,-1.269,-1.2588,-1.281,-1.2818,-1.2824,-1.291,-1.2925,-1.2939,0,0,0,0,0,-1.246,-1.254,-1.2518,-1.253,-1.2581,-1.2633,-1.2639,-1.2617,-1.2574,-1.2612,-1.2608,-1.2571,-1.2677,-1.2634,-1.2645,-1.2701,-1.2807,-1.2816,-1.2824,-1.2903,-1.2922,-1.2938,0,0,0,0,0,0,-1.254,-1.2541,-1.2516,-1.2602,-1.2618,-1.2621,-1.2668,-1.2638,-1.2667,-1.2658,-1.2628,-1.2631,-1.2706,-1.271,-1.2661,-1.2795,-1.2735,-1.2746,-1.2791,-1.2809,-1.2824,-1.2822,-1.2592,0,0,0,0,0,-1.2568,-1.2611,-1.2608,-1.2684,-1.2693,-1.2679,-1.2701,-1.2682,-1.2698,-1.2704,-1.2705,-1.2722,-1.2758,-1.2784,-1.2817,-1.2909,-1.291,-1.2952,-1.2967,-1.2979,-1.299,-1.3038,-1.3057,-1.2856,-1.2856,-1.2856,0,0,-1.2626,-1.2631,-1.266,-1.27,-1.2711,-1.2755,-1.2686,-1.2736,-1.2768,-1.2711,-1.2777,-1.2779,-1.2795,-1.2876,-1.2911,-1.2881,-1.3045,-1.299,-1.2999,-1.3004,-1.3049,-1.3068,-1.3085,-1.2862,-1.286,-1.286,0,0,-1.2754,-1.2763,-1.2827,-1.2838,-1.2854,-1.2844,-1.2859,-1.2866,-1.2865,-1.293,-1.2889,-1.2926,-1.2991,-1.3004,-1.3019,-1.315,-1.3117,-1.3162,-1.3239,-1.3287,-1.3303,-1.3317,-1.3364,-1.3381,-1.3172,-1.3172,-1.3172,0,-1.2825,-1.289,-1.2863,-1.2916,-1.2935,-1.2885,-1.2949,-1.2961,-1.2987,-1.3001,-1.2966,-1.3046,-1.3053,-1.3136,-1.3168,-1.3181,-1.3198,-1.3161,-1.3302,-1.3316,-1.3329,-1.3374,-1.3392,-1.3177,-1.3177,-1.3176,-1.3176,0,-1.2976,-1.3022,-1.3071,-1.3098,-1.3122,-1.318,-1.3161,-1.3189,-1.3167,-1.316,-1.3227,-1.3233,-1.3267,-1.3285,-1.3264,-1.3365,-1.3346,-1.3307,-1.3246,-1.3354,-1.3396,-1.3413,-1.3185,-1.3183,-1.3182,-1.318,0,0,-1.3159,-1.3168,-1.3187,-1.3198,-1.3211,-1.3246,-1.3301,-1.3334,-1.3359,-1.3378,-1.3424,-1.3478,-1.3442,-1.3459,-1.3439,-1.3481,-1.3585,-1.3437,-1.3437,-1.3465,-1.3697,-1.3727,-1.3748,-1.3562,-1.3565,-1.3568,-1.3696,0,-1.3286,-1.3383,-1.3359,-1.3454,-1.3496,-1.3448,-1.3496,-1.3509,-1.3503,-1.3538,-1.3531,-1.3571,-1.352,-1.353,-1.3569,-1.3564,-1.3631,-1.3554,-1.3605,-1.3607,-1.3605,-1.3769,-1.3802,-1.3923,-1.3712,-1.3715,-1.3717,0,-1.3449,-1.3475,-1.3574,-1.358,-1.3596,-1.364,-1.3668,-1.3701,-1.3715,-1.3708,-1.3726,-1.3697,-1.3751,-1.3688,-1.3762,-1.3711,-1.3729,-1.373,-1.3734,-1.374,-1.367,-1.3781,-1.396,-1.3979,-1.3742,-1.374,-1.3738,0,-1.3574,-1.3633,-1.37,-1.3711,-1.3719,-1.3751,-1.3755,-1.3765,-1.3786,-1.381,-1.3823,-1.3853,-1.387,-1.3893,-1.3873,-1.3829,-1.3951,-1.3886,-1.3947,-1.3948,-1.3977,-1.3975,-1.4164,-1.3986,-1.3986,-1.3985,-1.3985,0,-1.3721,-1.3784,-1.3756,-1.3798,-1.3866,-1.3837,-1.3906,-1.3905,-1.3914,-1.3954,-1.3913,-1.3951,-1.3921,-1.3957,-1.3941,-1.4005,-1.4013,-1.4009,-1.4004,-1.4014,-1.4014,-1.4027,-1.4019,-1.399,-1.3989,-1.3988,-1.3987,0,-1.3873,-1.3857,-1.3927,-1.3928,-1.3929,-1.398,-1.3981,-1.4019,-1.4009,-1.4061,-1.4071,-1.4056,-1.4096,-1.4078,-1.4119,-1.4108,-1.4191,-1.4174,-1.4187,-1.4183,-1.4246,-1.4241,-1.445,-1.4477,-1.4281,-1.4283,-1.4284,0,-1.3969,-1.4016,-1.4022,-1.4046,-1.4053,-1.4092,-1.4113,-1.4086,-1.4109,-1.4127,-1.4163,-1.4199,-1.4226,-1.4292,-1.4285,-1.4316,-1.4301,-1.4372,-1.4305,-1.4313,-1.4303,-1.4302,-1.4306,-1.4386,-1.4388,-1.439,-1.4392,0,-1.414,-1.413,-1.4162,-1.4191,-1.4217,-1.4239,-1.4257,-1.4278,-1.4251,-1.428,-1.432,-1.4341,-1.4383,-1.4419,-1.4446,-1.445,-1.4417,-1.4412,-1.4428,-1.4439,-1.4445,-1.4444,-1.4225,-1.4408,-1.4406,-1.4405,-1.4404,-1.4404,-1.4268,-1.4308,-1.4318,-1.4355,-1.4365,-1.4383,-1.4419,-1.4413,-1.4446,-1.4478,-1.4459,-1.4506,-1.4517,-1.4549,-1.4558,-1.4594,-1.4565,-1.4589,-1.4595,-1.4601,-1.461,-1.4438,-1.4598,-1.4598,-1.4597,-1.4597,-1.4596,0,-1.4439,-1.4442,-1.4476,-1.4503,-1.4532,-1.4496,-1.4514,-1.4541,-1.4582,-1.4595,-1.4623,-1.4668,-1.4703,-1.4698,-1.4729,-1.4759,-1.4744,-1.4768,-1.4767,-1.4768,-1.4633,-1.4617,-1.4779,-1.4779,-1.4779,-1.4779,-1.4779,-1.4779,-1.4531,-1.4596,-1.4587,-1.4656,-1.4659,-1.4705,-1.4718,-1.4734,-1.4744,-1.4796,-1.4825,-1.4821,-1.4826,-1.4858,-1.4888,-1.4885,-1.4899,-1.4929,-1.4921,-1.4796,-1.4778,-1.476,-1.4745,-1.4932,-1.4932,-1.5053,-1.5054,-1.5055]},{"header":{"parameterUnit":"m.s-1","parameterCategory":1,"la1":30.2991,"la2":30.254,"lo1":-89.0895,"lo2":-89.0444,"dy":0.0017,"dx":0.0017,"nx":28,"ny":28,"refTime":"2023-08-14T21:00:00:Z","depth":0,"parameterNumber":3,"parameterNumberName":"V-component_of_WINDS"},"data":[0,0,0,0,0,0,0,0,0,0,0,0,0,0,0,0,0,0,0,0,0,0,0,0,0,0,0,0,0,0,0,0,0,0,0,0,0,0,0,0,0,0,0,0,0,0,0,0,0,0,0,0,0,0,0,0,0,0,-1.5988,-1.5989,0,-1.6061,-1.6062,-1.6063,-1.6069,-1.6068,-1.6067,-1.6067,-1.614,-1.6142,-1.6145,0,0,0,0,0,0,0,0,0,0,0,0,0,-1.5853,-1.5855,-1.5988,-1.5989,-1.599,-1.6061,-1.6062,-1.6063,-1.6069,-1.6068,-1.6067,-1.6066,-1.6139,-1.6142,-1.6145,0,0,0,0,0,0,0,0,0,0,0,0,0,-1.5917,-1.5856,-1.5988,-1.6002,-1.6004,-1.6061,-1.6062,-1.6063,-1.6069,-1.6068,-1.6067,-1.6066,-1.6138,-1.6142,-1.6146,-1.6194,0,0,-1.6158,-1.616,0,0,0,0,0,0,0,0,-1.5914,-1.5922,-1.5999,-1.6001,-1.6003,-1.6055,-1.6041,-1.6107,-1.607,-1.6044,-1.6067,-1.6065,-1.6112,-1.6118,-1.6135,-1.6197,-1.6201,-1.6158,-1.6161,-1.6162,-1.6164,0,0,0,0,0,0,0,-1.5909,-1.5919,-1.6017,-1.6,-1.6003,-1.6004,-1.6012,-1.6054,-1.6084,-1.6046,-1.6047,-1.6056,-1.6113,-1.6131,-1.6136,-1.6202,-1.6158,-1.6162,-1.6164,-1.6166,-1.6309,-1.6311,0,0,0,0,0,0,-1.5902,-1.5915,-1.6015,-1.6019,-1.5955,-1.6007,-1.6016,-1.6039,-1.6084,-1.6089,-1.6057,-1.6056,-1.6124,-1.6132,-1.6139,-1.62,-1.6162,-1.6166,-1.6168,-1.6308,-1.631,-1.6311,0,0,0,0,0,0,-1.5899,-1.5911,-1.6012,-1.5968,-1.598,-1.6011,-1.6037,-1.6042,-1.6059,-1.6091,-1.6097,-1.6069,-1.6124,-1.6133,-1.6181,-1.6203,-1.6168,-1.6172,-1.6306,-1.6308,-1.631,-1.6322,0,0,0,0,0,0,-1.5895,-1.591,-1.5929,-1.5968,-1.5983,-1.6053,-1.6038,-1.6044,-1.6066,-1.6066,-1.6104,-1.611,-1.6124,-1.6175,-1.6185,-1.6208,-1.6175,-1.6304,-1.6307,-1.631,-1.632,-1.6325,-1.6328,0,0,0,0,0,-1.5891,-1.5929,-1.593,-1.5942,-1.6007,-1.6054,-1.6063,-1.6079,-1.6068,-1.6087,-1.6108,-1.6108,-1.6198,-1.618,-1.6191,-1.6215,-1.6303,-1.6306,-1.6309,-1.6318,-1.6324,-1.6328,0,0,0,0,0,0,-1.5891,-1.5934,-1.5936,-1.5988,-1.6017,-1.6055,-1.608,-1.6084,-1.6116,-1.6115,-1.6132,-1.6141,-1.6188,-1.6206,-1.6184,-1.6265,-1.625,-1.6255,-1.6252,-1.6258,-1.6262,-1.6258,-1.6178,0,0,0,0,0,-1.5897,-1.5932,-1.5967,-1.601,-1.6025,-1.605,-1.6071,-1.6081,-1.6112,-1.6124,-1.6148,-1.6178,-1.6213,-1.6236,-1.627,-1.6322,-1.6331,-1.6344,-1.6348,-1.6351,-1.6357,-1.6388,-1.6394,-1.6321,-1.6321,-1.6321,0,0,-1.591,-1.5938,-1.5959,-1.6011,-1.6035,-1.6071,-1.606,-1.6098,-1.6125,-1.613,-1.6177,-1.6195,-1.623,-1.628,-1.6304,-1.6297,-1.6379,-1.6355,-1.6358,-1.6362,-1.6391,-1.6398,-1.6405,-1.6324,-1.6323,-1.6323,0,0,-1.5953,-1.5976,-1.6016,-1.604,-1.6077,-1.6094,-1.6103,-1.614,-1.6154,-1.6201,-1.6206,-1.6237,-1.6297,-1.6322,-1.6342,-1.6394,-1.6397,-1.6405,-1.6427,-1.6457,-1.6463,-1.6468,-1.6489,-1.6496,-1.6409,-1.6409,-1.6409,0,-1.5964,-1.602,-1.6035,-1.6074,-1.6097,-1.6103,-1.6143,-1.6166,-1.6211,-1.6227,-1.6218,-1.6295,-1.6318,-1.6375,-1.6388,-1.6403,-1.6415,-1.6402,-1.646,-1.6466,-1.6471,-1.6491,-1.6499,-1.641,-1.641,-1.641,-1.641,0,-1.6033,-1.6071,-1.6098,-1.6144,-1.6169,-1.6208,-1.623,-1.6254,-1.6261,-1.6278,-1.6327,-1.6355,-1.6396,-1.6409,-1.6416,-1.6468,-1.6463,-1.6457,-1.6442,-1.6479,-1.6498,-1.6506,-1.6412,-1.6411,-1.6411,-1.6411,0,0,-1.608,-1.6134,-1.6144,-1.6165,-1.6206,-1.6236,-1.6275,-1.6315,-1.6337,-1.6367,-1.6402,-1.6452,-1.6447,-1.647,-1.6479,-1.6505,-1.6548,-1.6496,-1.6497,-1.6507,-1.6609,-1.6615,-1.6624,-1.6548,-1.6549,-1.6551,-1.6607,0,-1.6129,-1.6201,-1.6216,-1.6278,-1.6314,-1.632,-1.6354,-1.6383,-1.64,-1.6432,-1.645,-1.6487,-1.6477,-1.6491,-1.6516,-1.6537,-1.6569,-1.6533,-1.6581,-1.6583,-1.6575,-1.6633,-1.664,-1.6692,-1.6614,-1.6615,-1.6616,0,-1.6197,-1.6232,-1.6297,-1.6335,-1.6351,-1.6382,-1.6421,-1.6451,-1.6484,-1.6494,-1.6521,-1.6527,-1.6568,-1.6549,-1.6606,-1.6582,-1.6602,-1.6615,-1.6617,-1.6625,-1.6604,-1.6645,-1.6708,-1.6717,-1.6628,-1.6627,-1.6626,0,-1.6228,-1.629,-1.6338,-1.6356,-1.64,-1.6422,-1.6441,-1.6473,-1.6497,-1.653,-1.6546,-1.6583,-1.6604,-1.6632,-1.6649,-1.6633,-1.6705,-1.6687,-1.6716,-1.6716,-1.6734,-1.6733,-1.6804,-1.6742,-1.6741,-1.6741,-1.6741,0,-1.6284,-1.6324,-1.6353,-1.6383,-1.6429,-1.6445,-1.649,-1.6509,-1.6537,-1.657,-1.6576,-1.6607,-1.6625,-1.6659,-1.6672,-1.6718,-1.6727,-1.6737,-1.6741,-1.6738,-1.6738,-1.6754,-1.6752,-1.6743,-1.6743,-1.6743,-1.6742,0,-1.6327,-1.6348,-1.6401,-1.6439,-1.6449,-1.6482,-1.6514,-1.6543,-1.6559,-1.6602,-1.6612,-1.6638,-1.6679,-1.6697,-1.6746,-1.6754,-1.6808,-1.6808,-1.6798,-1.68,-1.6829,-1.6827,-1.6916,-1.6929,-1.6855,-1.6856,-1.6856,0,-1.6363,-1.6395,-1.6436,-1.646,-1.648,-1.6517,-1.6542,-1.6559,-1.6584,-1.6624,-1.6648,-1.6689,-1.6722,-1.6786,-1.6809,-1.6846,-1.6849,-1.6877,-1.6854,-1.6852,-1.6852,-1.6852,-1.6856,-1.6882,-1.6883,-1.6883,-1.6884,0,-1.6425,-1.6434,-1.6469,-1.6509,-1.6539,-1.6571,-1.6602,-1.662,-1.6642,-1.667,-1.6712,-1.6738,-1.6788,-1.6829,-1.6868,-1.6887,-1.689,-1.689,-1.69,-1.6899,-1.6894,-1.69,-1.6812,-1.6889,-1.6888,-1.6888,-1.6888,-1.6888,-1.6467,-1.6497,-1.6531,-1.6571,-1.6597,-1.6626,-1.6656,-1.6676,-1.6712,-1.6756,-1.6762,-1.6807,-1.6839,-1.6892,-1.6913,-1.6948,-1.6941,-1.6954,-1.6958,-1.6961,-1.6965,-1.6885,-1.6954,-1.6954,-1.6954,-1.6954,-1.6954,0,-1.6532,-1.6555,-1.6591,-1.6636,-1.6667,-1.6666,-1.6701,-1.6727,-1.6767,-1.6797,-1.683,-1.6879,-1.6918,-1.6944,-1.6983,-1.7007,-1.7009,-1.7017,-1.7017,-1.7022,-1.6967,-1.6956,-1.7014,-1.7014,-1.7014,-1.7014,-1.7014,-1.7014,-1.657,-1.662,-1.6633,-1.6696,-1.6718,-1.6763,-1.6783,-1.681,-1.6835,-1.6889,-1.6922,-1.6939,-1.6967,-1.7009,-1.7045,-1.7051,-1.7067,-1.7076,-1.7082,-1.7031,-1.7025,-1.7019,-1.701,-1.7078,-1.7078,-1.7135,-1.7135,-1.7135]}]]